Temp_Advection
nan nan nan nan nan nan nan nan nan nan nan nan nan nan nan nan nan nan nan nan nan nan nan nan nan nan nan nan nan nan nan nan nan nan nan nan nan nan nan nan nan nan nan nan nan nan nan nan nan nan nan nan nan nan
nan 0 0 -0 -0 0 0 -0 0 0 0 0 -0 -0 0 -0 -0 -0 -0 -0 0 0 -0 -0 -0 -0 -0 -0 -0 -0 -0 0 0 0 -0 -0 -0 -0 0 -0 -0 0 0 0 0 -0 0 0 0 0 -0 -0 -1 nan
nan -0 -0 -0 -0 -0 -0 0 0 -0 0 0 0 0 -0 -0 -0 -0 -0 0 0 -0 -0 -0 -0 0 0 -0 -0 -0 -0 -0 0 -0 -0 -0 -0 0 0 -0 -0 0 0 0 0 0 1 -0 0 0 1 0 -1 nan
nan -0 -0 -0 0 -0 0 0 0 0 0 0 0 0 -0 0 0 0 0 0 0 -0 -0 -0 -0 -0 -0 -0 -0 -0 -0 -0 -0 -0 -0 0 -0 -0 0 0 -0 -0 0 0 -0 -0 0 0 0 1 2 2 0 nan
nan 0 -0 -0 0 0 0 0 -0 -0 -0 -0 -0 0 0 0 0 0 0 -0 -0 -1 -0 -0 -0 -0 -0 -0 -0 -0 -0 -0 -0 -0 -0 -0 -0 -0 -0 0 -0 -0 0 0 -0 -0 0 0 0 0 0 1 1 nan
nan 0 -0 -0 -0 -0 0 -0 -0 -0 -0 -0 -0 0 0 0 -0 -0 -0 -0 -0 -0 -0 -0 -0 -0 -0 -0 -0 -0 -0 -0 -1 -1 -0 -0 0 0 0 -1 -1 -0 0 0 0 0 0 0 0 0 0 0 0 nan
nan -0 -0 -0 -0 -0 0 -0 -0 -0 0 0 -0 -0 0 0 0 0 -0 0 0 -0 -0 -0 -0 -0 0 -0 -0 -0 -0 -0 -0 -0 -0 -0 1 0 -0 -1 -1 0 -0 -0 -0 0 0 0 -0 0 0 0 0 nan
nan -0 -0 -0 -0 -0 0 -0 -0 -0 -0 0 0 0 0 0 -0 -0 -0 0 0 -0 -0 -0 0 -0 -0 -0 -0 0 0 0 -0 -0 -0 -0 -0 0 -0 -1 -0 -1 -1 -1 -1 -0 0 0 0 0 0 0 -0 nan
nan -0 -0 -0 -0 0 0 0 0 0 0 0 0 0 -0 -0 -0 0 0 -0 0 -0 -0 -0 0 0 -0 -0 0 0 0 -0 -0 -0 -0 -0 0 0 -0 -2 -2 -1 -2 -3 -2 -1 -0 -0 -0 -0 0 0 -0 nan
nan -0 -0 0 0 0 0 0 0 0 0 0 -0 0 -0 -0 0 0 0 -0 -0 -0 -0 -0 -0 -0 0 -0 0 0 -0 0 -0 -0 -0 0 0 -1 -1 -1 -1 -1 -0 -1 -1 -1 -0 -0 -0 -0 -0 -0 -0 nan
nan -0 0 0 0 0 0 0 0 0 -0 -0 -0 -0 -0 0 0 -0 -0 -0 -0 -0 -0 -0 -0 0 -0 -0 -0 -0 -0 -0 -0 0 -0 0 0 -0 0 -0 -0 -0 0 0 -0 -1 -1 -0 -1 -0 0 0 0 nan
nan 0 0 0 0 -0 -0 -0 -0 -0 -0 -0 0 0 0 -0 -0 -0 -0 -0 -0 -0 0 0 -0 -0 -0 0 0 0 -0 0 -0 -0 0 0 -0 -0 0 -0 -0 -0 -0 -0 -0 -0 -0 0 -0 -0 0 -0 0 nan
nan -0 -0 -0 0 0 -0 -0 -0 -0 -0 0 -0 -0 -0 -0 -0 -0 -0 -0 -0 0 0 0 0 0 0 0 -0 0 -0 -0 0 0 -0 0 -1 -0 0 -0 -0 -0 -0 -1 -1 -1 -1 -0 -0 -0 0 0 1 nan
nan -0 -0 -0 -0 -0 -0 -0 -0 -0 -0 -0 0 -0 -0 -0 -0 -0 -0 -0 -0 0 0 0 0 0 0 -0 -0 -0 -0 0 0 -0 0 -0 -0 0 -0 -0 -0 -0 -1 -0 -0 -0 -0 -0 -0 -0 0 0 1 nan
nan -0 0 -0 -0 -0 -0 -0 0 -0 -0 -0 0 -0 -0 -0 0 0 -0 -0 -0 0 0 0 -0 0 -0 -0 -0 -0 -0 -0 -0 0 -0 -0 -0 -0 -1 -0 -0 -0 -0 -0 -0 -0 -0 -0 0 -0 -0 0 0 nan
nan -0 0 -0 -0 -0 -0 -0 -0 -0 -0 -0 -0 -0 -0 0 0 0 -0 -0 -0 0 0 -0 0 -0 -0 -0 -0 -0 -0 0 -0 -0 -0 -0 -0 -0 -0 -0 -0 -0 -0 -0 -0 -0 0 -0 -0 -0 0 0 0 nan
nan -0 0 -0 -0 -0 -0 -0 -0 -0 -0 -0 0 0 -0 -0 0 -0 -0 -0 0 0 -0 0 -0 -0 -0 -0 -0 0 0 -0 -0 -0 -0 -0 -0 -0 -0 -0 0 0 0 0 -0 -0 0 0 0 0 0 -0 -0 nan
nan -0 0 -0 -0 -0 -0 -0 -0 -0 -0 -0 0 0 0 0 -0 -0 -0 -0 -0 -0 0 -0 -0 0 -0 -0 0 -0 -0 -0 0 -0 -0 -0 -0 -0 -0 -0 0 -0 -0 -0 0 -0 -0 0 -0 -0 -0 0 -0 nan
nan -0 -0 -0 -0 -0 -0 -0 -0 -0 -0 0 0 0 0 0 -0 -0 -0 -0 -0 0 -0 -0 -0 -0 -0 0 0 0 0 0 -0 -0 0 0 0 0 0 -0 -0 -0 -0 -0 -0 -0 -0 -0 -0 0 0 -0 -0 nan
nan 0 0 -0 -0 -0 -0 0 0 -0 -0 0 -0 -0 -0 0 0 0 0 -0 -0 -0 -0 -0 -0 -0 -0 0 0 0 0 0 0 -0 0 0 0 0 0 0 -0 -0 -0 -0 -0 -0 -0 -0 -0 0 -0 -0 -0 nan
nan 0 0 -0 -0 -0 -0 -0 -0 -0 0 -0 -0 -0 -0 0 0 0 0 0 0 -0 0 -0 -2 -1 0 0 0 0 0 0 0 0 -0 0 0 -0 -0 -0 -0 -0 -0 -0 -0 -0 -0 -0 -1 -0 -0 0 0 nan
nan 0 -0 -0 -0 -0 -0 -0 -0 -0 -0 -0 0 -0 -0 0 0 0 0 0 -0 -0 -1 -1 -1 -1 -0 -0 0 0 0 0 0 -0 -0 -0 -0 -0 -0 -0 -0 -0 -0 -0 -0 -0 -0 -0 -0 -0 -0 -0 0 nan
nan -0 -0 -0 -0 -0 -0 -0 -0 -0 -0 -0 -0 -0 -0 -0 -0 -0 0 -0 -0 -0 -0 -0 -0 -0 -0 -0 -0 -0 -0 0 -0 -0 -0 -0 -0 -0 -0 -0 -0 -0 -0 -0 -0 -0 -0 -0 -0 -0 -0 -0 -0 nan
nan 0 0 -0 -0 0 0 -0 -0 -0 -0 -0 -0 -0 -0 -0 -0 -0 1 -1 -0 -0 -0 -0 -0 -0 0 -0 -0 -0 -0 -0 -0 -0 -0 -0 -0 0 -0 -0 -0 -0 -0 -0 -0 -0 -0 -0 -0 -0 -0 -0 -0 nan
nan 0 -0 -0 -0 -0 -0 0 -0 -0 0 -0 -0 -0 -0 -0 -0 -0 -0 -0 -0 -0 -0 -0 -0 -0 -0 -0 -0 -0 -0 -0 -0 -0 -0 0 -0 -0 -0 -0 -0 -0 -0 -0 -0 -0 -0 -0 -0 -0 -0 -0 -0 nan
nan -0 -0 0 -0 -0 0 0 0 0 0 0 -0 -0 -0 -0 -0 0 -0 -0 -0 -0 -0 -0 -0 -0 -0 -0 -0 -0 -0 -0 -0 0 -0 -0 -0 -0 -0 -0 -0 -0 -0 -0 -0 -0 -0 -0 -0 -0 -0 -0 -0 nan
nan 0 0 0 0 0 0 0 -0 0 0 -0 -0 -0 0 -0 -0 -0 -0 -0 -0 -0 -0 -0 -0 -0 -0 -0 -0 -0 -0 -0 -0 -0 0 -0 -0 -0 -0 -0 -0 -0 -0 -0 -0 -0 -0 -0 -0 -0 -0 -0 -0 nan
nan 0 0 0 0 0 0 0 0 0 -0 -0 0 0 -0 -0 -0 -0 -0 0 0 -0 0 0 0 -0 -0 -0 -0 -0 -0 -0 -0 0 0 0 0 0 -0 -0 -0 -0 -0 -0 -0 -0 0 -0 -0 -0 -0 -0 -0 nan
nan 0 -0 0 0 0 -0 0 -0 -0 0 0 0 -0 0 0 0 0 0 0 0 -0 0 0 0 0 0 0 -0 -0 -0 0 0 0 0 -0 -0 0 -0 -0 -0 -0 -0 -0 -0 -0 -0 -0 -0 -0 -0 -0 -0 nan
nan 0 -0 -0 -0 -0 -0 0 0 1 0 0 0 0 0 0 0 1 1 0 0 0 0 0 0 0 0 0 -0 -0 -0 -0 -0 0 -0 -0 -0 -0 -0 -0 -0 -0 -0 -0 -0 -0 -0 -0 -0 -0 -0 -0 -0 nan
nan 0 0 -0 -0 0 1 1 0 0 -0 -0 -0 -0 -0 -0 0 1 1 0 0 0 0 0 0 0 0 0 0 -0 0 -0 0 0 0 0 0 0 0 0 0 -0 -0 -0 -0 -0 -0 -0 -0 -0 -0 -0 -0 nan
nan 0 0 0 0 0 0 -0 -0 -0 0 0 -0 -0 0 -0 -0 0 1 0 0 -0 -0 0 0 0 0 -0 -0 0 0 0 -0 -0 -0 0 0 0 0 0 0 0 -0 0 -0 -0 -0 -0 -0 -0 -0 -0 -0 nan
nan nan nan nan nan nan nan nan nan nan nan nan nan nan nan nan nan nan nan nan nan nan nan nan nan nan nan nan nan nan nan nan nan nan nan nan nan nan nan nan nan nan nan nan nan nan nan nan nan nan nan nan nan nan
Wind_Speed
21 18 16 15 15 16 17 16 14 13 4 1 4 8 16 17 19 21 21 34 21 12 14 9 11 11 8 8 7 2 5 7 4 5 5 3 3 0 4 6 2 2 5 5 5 4 2 15 10 8 10 20 27 32
20 16 17 15 14 15 16 10 11 13 12 4 4 8 5 9 18 26 23 22 18 7 5 7 12 13 8 5 5 3 4 2 1 3 2 4 3 3 5 4 3 2 2 5 2 4 8 4 4 11 17 23 20 25
16 18 17 17 16 15 17 11 13 11 10 11 12 11 7 7 13 19 11 16 17 8 7 8 12 12 14 13 7 9 6 3 2 2 3 3 4 6 5 5 7 2 3 3 7 5 8 9 9 7 12 22 27 16
15 15 16 17 17 14 15 12 10 9 9 6 6 4 4 9 12 12 12 12 17 4 4 8 7 7 7 11 11 11 9 5 4 6 4 3 5 6 7 11 10 9 7 8 9 7 11 1 8 10 14 17 20 17
15 14 16 17 18 20 18 19 15 8 8 9 4 5 8 9 8 8 11 12 16 6 3 4 6 7 6 8 11 13 12 12 11 7 4 6 7 8 9 11 9 10 7 7 8 8 10 11 13 12 14 12 9 16
14 13 16 17 20 19 19 19 15 13 11 13 10 6 9 12 9 10 4 10 8 2 3 3 4 7 5 9 11 11 11 12 13 12 5 10 17 8 7 11 14 19 15 17 13 17 17 19 19 14 12 7 7 14
18 19 20 18 19 20 20 20 19 19 15 16 20 20 17 12 8 1 1 2 12 3 3 3 4 7 5 7 9 10 10 10 10 11 7 14 16 8 7 14 18 25 26 26 26 22 17 19 16 14 10 10 10 6
16 16 17 18 18 18 18 19 20 22 20 15 14 13 12 10 8 7 5 6 9 4 3 3 2 5 5 5 4 6 7 8 7 12 14 9 13 10 9 16 22 22 25 26 24 19 20 21 18 19 15 13 11 10
16 16 16 16 17 18 17 16 16 16 16 13 5 4 4 3 3 4 5 6 2 1 2 3 3 2 3 2 2 3 3 4 6 6 10 8 8 9 12 18 27 31 33 34 29 22 17 18 18 18 15 12 13 11
14 13 12 12 12 14 16 15 14 15 11 7 6 2 2 1 2 4 3 1 1 3 4 3 2 1 1 0 1 3 0 2 3 2 7 3 6 8 13 24 28 27 24 21 23 20 18 17 20 16 14 13 12 10
9 9 9 9 9 11 14 15 17 13 11 7 4 3 1 3 2 1 1 2 3 3 4 3 4 3 3 3 2 1 2 2 3 1 2 2 1 10 22 25 25 18 17 7 7 14 14 12 14 12 9 9 11 10
7 7 8 9 11 15 16 16 15 11 10 8 3 2 1 1 2 3 2 1 4 1 2 3 2 3 1 1 3 3 3 2 3 1 3 2 6 12 19 24 22 24 18 14 7 2 4 4 4 5 5 7 11 14
12 12 13 14 15 15 17 17 16 14 15 5 3 2 3 2 3 3 5 3 2 3 4 3 3 2 4 3 3 3 3 4 2 3 2 3 9 13 16 19 21 22 18 16 15 11 7 3 4 3 5 7 15 17
13 13 13 13 14 13 16 17 16 13 5 3 2 3 3 3 4 2 4 4 3 3 5 6 5 2 4 3 3 3 3 2 3 3 2 5 10 13 14 15 18 20 22 19 14 9 5 5 6 6 6 10 14 17
14 15 15 15 14 15 17 15 13 9 4 4 3 4 4 5 2 4 4 6 7 7 5 6 5 5 3 3 3 3 3 4 4 1 3 4 8 11 13 14 15 16 18 17 14 12 9 6 7 10 10 10 12 12
14 14 7 9 13 13 15 13 7 4 3 4 5 4 6 4 4 4 8 11 8 4 3 4 3 3 4 3 4 6 3 2 2 4 4 4 7 9 10 12 14 14 14 14 12 10 7 7 5 6 7 10 10 7
12 7 13 16 16 14 14 7 3 4 4 4 4 5 10 11 9 11 10 10 5 4 2 2 4 4 1 3 3 2 2 4 5 4 3 4 6 7 8 11 13 14 13 11 10 10 8 3 2 3 3 4 4 4
10 11 16 16 16 12 6 3 3 4 5 7 7 7 7 9 11 12 12 11 9 6 4 4 4 4 4 4 2 2 3 4 2 2 2 2 3 5 6 9 11 12 13 12 11 9 8 6 1 2 3 4 4 4
12 13 13 10 9 6 3 3 3 3 5 8 9 10 9 10 11 12 12 11 11 11 4 4 5 5 6 5 3 2 2 2 2 1 2 2 3 6 7 8 9 11 12 12 11 10 9 7 6 4 4 5 5 5
9 11 8 10 6 3 3 3 2 5 3 5 10 10 8 9 10 8 8 8 10 6 5 4 8 13 11 6 2 1 2 3 3 3 3 2 3 6 7 8 9 10 10 10 10 12 11 8 6 8 9 8 9 8
7 8 12 4 3 3 3 3 4 5 6 5 9 11 11 8 9 7 5 4 6 4 4 6 16 8 3 3 3 4 5 4 3 3 4 5 5 6 6 7 8 8 8 9 11 12 11 12 14 7 9 11 9 10
7 11 4 3 3 3 4 4 5 9 6 9 9 6 8 6 8 4 5 2 2 4 6 10 12 10 2 2 4 6 5 4 2 1 3 4 4 5 6 7 6 6 6 7 9 11 12 13 13 12 7 11 13 11
8 4 2 2 3 4 3 3 4 4 3 4 10 7 6 7 11 13 3 2 4 7 9 9 6 5 4 3 3 5 5 3 1 1 2 3 3 4 4 3 4 5 6 8 9 10 11 12 12 11 9 7 3 10
4 3 3 3 4 2 3 3 3 4 5 5 5 6 7 6 9 8 10 3 6 7 9 10 13 4 2 2 4 5 5 4 2 2 2 2 2 2 2 3 3 5 6 7 9 10 12 12 11 10 10 8 6 3
3 3 4 4 4 3 3 1 2 2 3 3 4 4 3 5 3 7 2 3 7 8 9 10 9 10 8 6 3 3 5 3 3 3 4 3 3 2 2 2 2 5 7 8 9 9 11 12 12 12 10 9 8 6
6 5 5 5 3 4 3 2 3 3 2 2 3 4 4 3 3 2 2 4 5 7 9 9 8 9 3 3 5 5 6 3 1 1 2 4 4 3 3 4 4 4 9 8 10 10 10 11 12 12 11 11 10 8
5 6 6 5 3 3 2 2 3 3 3 3 3 1 2 3 4 3 4 2 4 5 6 6 5 5 5 4 4 5 5 4 3 1 2 1 3 4 3 4 6 8 9 9 8 9 10 11 12 12 12 11 10 10
6 8 6 9 5 4 3 3 3 4 4 4 2 4 3 3 2 3 1 3 4 5 5 5 4 3 3 4 5 6 6 4 2 3 3 4 4 5 7 6 7 8 8 9 9 9 9 10 11 13 12 11 10 10
6 8 10 4 3 4 6 6 4 6 6 7 3 4 4 6 5 6 9 9 10 9 7 5 5 4 3 3 4 4 4 1 3 1 1 0 2 4 10 8 8 8 8 9 8 9 10 10 10 11 10 9 11 12
8 14 6 6 5 7 6 10 6 7 7 11 12 13 16 17 17 16 14 13 12 10 8 5 3 1 1 1 0 2 4 4 5 4 3 2 4 7 9 9 9 9 10 10 10 10 9 9 8 8 10 10 10 11
12 11 6 6 4 4 6 6 6 7 8 10 15 19 22 19 16 15 15 14 12 12 10 7 6 4 3 1 1 1 1 4 4 4 5 5 6 7 8 10 10 10 11 11 11 11 11 9 8 9 10 11 12 12
9 9 5 5 4 4 3 3 4 6 8 11 12 10 8 6 9 9 12 13 15 13 12 10 8 8 7 6 3 3 3 3 3 4 6 6 7 8 9 9 10 11 11 11 11 11 12 11 9 9 10 10 11 12
5 5 4 3 4 5 4 3 3 4 6 5 7 9 10 11 8 7 9 11 13 12 12 11 11 12 10 8 5 3 3 3 3 4 5 6 7 8 9 9 10 10 11 11 10 11 11 11 10 9 9 10 11 11
Wind_Direction
348 347 348 349 356 352 346 350 2 4 25 287 199 178 193 207 214 218 208 205 201 226 242 224 244 257 258 243 249 170 216 214 194 236 257 256 273 341 265 287 334 299 316 5 328 284 332 2 2 9 321 313 319 320
1 9 4 4 5 4 7 8 24 35 51 62 178 179 216 192 194 182 192 187 193 214 259 241 246 247 275 300 305 234 305 190 360 273 256 286 270 261 292 315 196 321 360 322 260 300 276 229 252 313 336 324 312 318
21 17 22 27 24 21 29 63 44 52 66 85 98 124 138 165 169 183 197 193 200 218 256 254 239 247 244 245 267 278 268 279 255 292 316 313 292 352 308 313 329 309 10 275 318 324 316 211 266 287 332 323 325 319
20 31 37 30 23 30 38 42 43 59 67 86 117 111 147 167 193 195 203 176 187 195 243 194 199 220 227 227 234 239 261 279 283 263 236 265 282 298 291 318 298 299 312 281 301 298 341 237 301 323 316 316 337 339
31 36 29 28 47 46 48 49 50 54 45 58 83 115 139 164 175 204 217 224 210 268 313 122 164 196 211 221 230 232 239 245 259 268 245 258 275 286 280 277 265 268 278 270 265 321 309 291 298 303 314 322 334 344
36 29 34 57 45 56 57 52 50 63 62 60 80 107 158 170 129 102 107 187 193 254 304 220 152 179 210 211 219 222 226 235 244 262 269 271 269 267 267 278 293 301 285 270 274 285 292 293 289 289 286 304 3 343
51 58 63 54 60 58 53 52 60 63 83 88 84 82 85 72 26 40 28 138 198 232 285 263 184 175 198 217 225 229 232 240 253 267 257 258 270 207 260 273 288 292 289 284 282 277 272 275 272 282 265 274 301 307
48 53 55 57 58 56 56 61 62 52 58 71 76 80 81 80 64 47 55 124 151 240 263 279 150 169 191 220 234 229 241 240 240 244 262 269 273 269 269 277 289 309 308 302 291 274 266 270 267 270 272 270 268 257
57 55 56 55 51 50 47 37 21 5 353 359 5 16 24 28 50 54 71 148 172 224 268 260 268 163 164 230 269 258 263 268 271 258 261 271 271 256 311 348 318 301 291 284 277 278 266 268 254 262 272 263 253 244
46 44 42 47 53 34 26 13 6 3 8 10 22 329 8 31 69 36 5 203 261 243 239 264 279 219 267 61 287 306 116 246 286 272 310 265 269 11 333 315 310 315 307 281 255 246 247 256 259 251 257 253 240 225
19 19 24 24 12 5 4 4 6 15 16 358 8 10 24 351 324 286 278 250 206 234 218 266 318 311 78 291 326 140 288 254 259 76 293 272 299 359 343 345 357 357 5 5 244 242 250 262 250 230 239 239 227 195
340 346 348 345 343 342 342 343 349 5 343 319 308 283 309 297 260 246 244 237 248 327 147 287 48 334 94 218 260 195 250 247 262 270 260 252 42 5 351 2 8 7 5 1 5 266 231 260 316 293 268 274 226 174
305 311 317 322 324 327 335 339 337 334 343 319 296 279 252 181 248 247 179 217 217 182 213 239 258 255 176 217 245 229 234 240 327 237 231 63 31 11 356 358 6 11 17 19 23 28 41 26 360 315 248 207 176 179
302 301 300 306 318 315 322 326 333 338 330 281 236 264 244 187 236 253 308 348 31 268 264 286 286 262 205 216 240 248 226 256 255 237 159 63 10 1 1 356 4 6 16 21 18 14 37 60 65 81 115 153 159 152
302 302 301 298 303 311 314 314 310 322 280 269 254 253 230 249 285 281 277 262 256 257 292 294 260 237 199 218 222 251 216 238 225 198 81 32 8 5 0 360 358 360 8 12 18 32 45 60 80 88 92 108 126 129
307 317 299 309 312 321 324 324 311 263 247 245 239 259 265 283 270 261 263 260 265 257 249 249 272 247 217 216 208 223 249 244 71 68 79 26 16 9 1 358 355 352 355 360 3 8 16 39 61 72 87 102 102 98
309 300 288 306 312 316 317 323 276 228 237 236 242 261 271 282 284 286 277 261 247 234 239 311 263 240 264 236 237 258 326 78 58 96 74 40 18 3 2 358 359 358 352 350 352 356 358 21 360 46 82 119 118 111
298 286 299 310 316 325 302 273 247 242 247 251 264 278 272 271 279 277 268 263 244 228 213 223 262 242 246 263 262 129 119 132 133 118 94 33 5 359 352 346 348 350 349 347 343 346 344 349 320 173 154 162 164 173
301 305 311 317 330 312 279 249 240 263 255 279 276 275 273 274 273 271 273 269 257 260 257 234 239 244 249 272 293 194 204 246 142 125 306 307 332 336 341 338 341 342 345 346 346 341 324 300 263 219 217 210 215 217
311 310 310 319 310 274 260 251 262 263 265 292 292 284 285 282 290 278 268 274 276 260 236 237 255 269 289 280 186 256 169 187 217 253 247 206 312 328 336 340 339 337 344 349 354 1 359 346 288 252 235 229 219 220
337 296 316 346 264 245 276 290 268 256 284 277 286 298 292 298 300 295 299 318 237 232 277 344 348 309 235 191 175 167 167 170 186 241 287 294 312 327 330 331 338 347 349 354 358 0 1 358 356 298 238 225 221 218
285 313 307 285 262 254 252 246 272 296 282 279 301 302 291 292 300 295 322 278 66 25 356 340 346 353 43 97 124 137 134 141 129 293 342 328 321 320 326 329 343 345 356 354 359 356 355 352 351 358 315 244 225 225
293 322 251 242 244 234 249 272 258 264 277 295 309 298 294 299 314 303 265 108 97 26 4 359 346 2 35 53 62 57 55 69 109 1 341 324 324 327 336 358 6 3 3 2 1 354 351 353 357 359 360 2 284 240
283 225 215 233 228 242 282 257 253 272 302 314 313 310 301 311 303 297 275 72 46 20 15 1 360 315 307 66 52 28 22 20 26 37 357 12 7 10 53 47 8 18 12 354 355 1 360 0 358 359 4 4 3 308
228 215 199 215 226 220 220 241 284 286 277 298 300 279 316 311 282 293 338 57 21 20 8 360 0 1 353 9 36 20 5 32 35 74 47 60 25 39 66 39 13 21 7 4 355 354 352 352 355 354 353 349 352 10
232 186 201 201 196 210 189 213 210 239 297 280 266 301 305 295 267 245 96 23 348 352 351 348 347 332 353 13 360 356 340 344 29 161 66 56 56 52 2 348 340 349 339 349 342 338 338 339 341 342 341 338 334 331
230 194 194 201 203 186 210 238 251 245 226 231 251 288 274 256 257 109 122 59 347 329 330 327 325 321 326 331 336 319 313 314 263 53 243 36 37 7 354 342 329 316 340 341 338 331 327 329 330 330 327 328 324 318
217 182 180 182 190 195 183 208 201 215 220 211 224 216 229 240 312 113 157 300 311 314 305 304 312 307 295 314 326 326 313 300 311 231 253 312 324 325 340 326 315 316 327 329 327 323 321 320 322 323 321 316 316 315
190 172 149 163 177 197 215 202 218 212 217 201 220 232 243 253 291 280 282 284 290 290 276 279 280 291 276 319 337 350 356 84 76 120 174 31 12 315 316 339 336 334 330 330 329 328 324 316 319 331 333 326 315 314
171 165 169 166 187 208 211 201 224 229 239 244 251 262 268 273 278 281 266 271 264 254 245 236 235 210 191 185 120 22 19 52 71 106 47 28 337 329 341 340 344 348 353 351 344 342 345 339 335 337 330 325 323 318
154 170 169 179 214 206 208 209 241 253 253 252 252 260 268 279 279 266 255 246 238 230 220 214 204 195 185 162 138 118 66 355 9 352 339 333 334 336 332 341 346 346 345 345 350 347 342 346 343 335 334 330 328 329
167 180 164 184 190 186 175 221 255 255 262 251 260 250 255 247 258 266 252 217 213 212 214 213 211 214 214 215 235 281 279 294 310 319 323 326 329 331 333 338 345 344 343 346 342 339 340 339 333 330 327 332 334 338
132 155 171 182 186 189 173 204 240 276 255 261 260 245 241 245 256 243 248 210 202 206 207 206 205 218 223 219 244 283 309 322 336 345 349 350 349 349 349 352 349 347 346 345 343 339 339 338 337 328 324 322 328 334
Height
1366 1361 1357 1353 1349 1345 1340 1335 1330 1326 1323 1323 1324 1327 1332 1338 1344 1348 1348 1355 1359 1361 1360 1361 1362 1360 1358 1357 1356 1358 1361 1359 1362 1361 1353 1348 1344 1346 1336 1334 1337 1341 1339 1335 1327 1320 1328 1337 1326 1330 1333 1322 1314 1295
1365 1361 1356 1352 1348 1344 1340 1336 1333 1330 1327 1326 1327 1329 1333 1336 1340 1340 1350 1351 1358 1362 1360 1359 1360 1360 1360 1360 1360 1358 1357 1357 1357 1355 1353 1347 1343 1336 1334 1332 1330 1337 1340 1338 1342 1337 1334 1336 1337 1336 1333 1326 1316 1306
1367 1363 1358 1354 1350 1346 1342 1339 1337 1334 1333 1332 1332 1334 1336 1338 1342 1346 1349 1353 1357 1360 1360 1358 1356 1357 1358 1359 1361 1361 1358 1358 1357 1358 1355 1351 1345 1337 1337 1333 1332 1331 1334 1340 1339 1330 1327 1330 1333 1331 1330 1327 1316 1308
1369 1365 1361 1358 1353 1348 1345 1343 1340 1339 1338 1337 1338 1338 1339 1340 1342 1346 1349 1352 1356 1359 1355 1353 1353 1355 1356 1357 1359 1360 1360 1360 1358 1356 1354 1353 1349 1341 1338 1336 1336 1334 1334 1331 1328 1324 1327 1327 1327 1326 1326 1324 1318 1309
1372 1368 1365 1361 1357 1353 1349 1347 1344 1342 1341 1341 1340 1340 1342 1344 1346 1348 1350 1353 1355 1358 1351 1349 1353 1354 1354 1355 1356 1357 1358 1358 1357 1354 1352 1350 1344 1342 1339 1335 1330 1327 1324 1326 1324 1325 1325 1326 1325 1325 1323 1320 1319 1315
1374 1371 1368 1365 1362 1359 1355 1352 1349 1347 1346 1345 1344 1344 1345 1347 1349 1350 1353 1355 1356 1358 1356 1349 1351 1352 1353 1353 1354 1354 1355 1355 1354 1349 1347 1344 1344 1344 1339 1330 1326 1325 1324 1324 1323 1324 1324 1323 1322 1321 1321 1320 1318 1313
1378 1375 1372 1370 1367 1364 1361 1358 1355 1352 1351 1350 1350 1349 1350 1351 1352 1353 1354 1354 1356 1358 1357 1350 1346 1350 1351 1351 1352 1352 1353 1352 1352 1350 1347 1344 1340 1344 1337 1328 1324 1322 1320 1317 1316 1315 1316 1319 1317 1316 1317 1317 1317 1317
1382 1380 1377 1375 1372 1370 1367 1365 1363 1361 1359 1358 1357 1356 1356 1356 1356 1356 1355 1354 1356 1358 1357 1351 1343 1346 1349 1348 1348 1348 1349 1350 1348 1345 1342 1338 1334 1332 1326 1322 1321 1319 1318 1315 1312 1311 1313 1314 1314 1313 1313 1314 1315 1315
1386 1384 1381 1379 1377 1375 1373 1371 1368 1366 1363 1361 1360 1359 1359 1358 1358 1358 1356 1356 1358 1361 1357 1350 1342 1342 1347 1347 1348 1349 1348 1345 1341 1338 1335 1332 1327 1325 1323 1328 1326 1323 1319 1314 1311 1310 1309 1309 1309 1309 1308 1310 1310 1311
1389 1387 1385 1382 1380 1378 1376 1373 1370 1367 1364 1362 1361 1362 1361 1360 1359 1359 1360 1359 1359 1357 1354 1348 1344 1344 1347 1347 1348 1349 1350 1348 1343 1338 1336 1331 1328 1331 1335 1331 1323 1314 1307 1302 1303 1305 1305 1306 1305 1304 1304 1306 1306 1307
1390 1388 1386 1384 1382 1380 1377 1374 1371 1367 1365 1365 1363 1362 1362 1361 1361 1360 1360 1358 1355 1352 1348 1345 1345 1343 1349 1348 1346 1350 1349 1344 1339 1338 1336 1330 1330 1335 1332 1327 1320 1313 1306 1301 1302 1303 1304 1303 1303 1301 1302 1303 1305 1306
1390 1388 1386 1384 1382 1380 1377 1374 1371 1370 1368 1366 1365 1363 1362 1362 1361 1359 1355 1355 1351 1342 1344 1343 1344 1346 1348 1350 1349 1350 1345 1342 1339 1337 1334 1329 1332 1334 1331 1327 1321 1315 1310 1306 1303 1302 1302 1302 1303 1304 1304 1305 1304 1305
1389 1387 1385 1383 1380 1378 1376 1373 1371 1369 1366 1366 1364 1363 1361 1361 1359 1356 1351 1346 1347 1346 1346 1345 1347 1348 1349 1350 1349 1346 1344 1337 1334 1333 1325 1326 1331 1334 1331 1327 1324 1319 1315 1311 1308 1306 1306 1305 1304 1303 1303 1303 1303 1303
1386 1384 1382 1380 1378 1376 1374 1372 1370 1368 1366 1364 1363 1360 1357 1354 1350 1347 1345 1344 1347 1347 1346 1346 1346 1347 1346 1347 1344 1342 1336 1335 1330 1325 1320 1328 1334 1333 1331 1329 1326 1322 1319 1316 1313 1311 1309 1308 1307 1305 1304 1304 1305 1307
1383 1380 1379 1376 1375 1373 1371 1369 1367 1367 1367 1363 1360 1356 1350 1348 1349 1349 1349 1348 1347 1346 1346 1346 1345 1344 1342 1342 1339 1335 1333 1328 1318 1321 1326 1334 1333 1333 1332 1329 1327 1324 1321 1319 1317 1314 1313 1311 1309 1307 1307 1307 1308 1309
1380 1378 1376 1374 1372 1370 1367 1365 1364 1365 1364 1361 1356 1353 1349 1349 1348 1349 1349 1346 1345 1345 1345 1345 1342 1339 1336 1332 1331 1327 1319 1315 1322 1327 1333 1333 1333 1333 1332 1330 1328 1326 1323 1321 1319 1317 1316 1315 1314 1313 1312 1311 1312 1313
1377 1377 1373 1371 1369 1366 1365 1363 1362 1361 1359 1355 1352 1350 1350 1348 1347 1346 1345 1343 1343 1343 1342 1341 1339 1331 1330 1326 1323 1318 1320 1326 1330 1332 1333 1333 1333 1333 1332 1331 1328 1326 1324 1322 1320 1318 1316 1316 1315 1315 1315 1315 1315 1315
1375 1375 1371 1368 1365 1363 1362 1361 1359 1357 1353 1350 1348 1348 1347 1347 1345 1343 1342 1341 1341 1340 1340 1337 1333 1328 1325 1318 1316 1324 1326 1330 1331 1332 1333 1333 1333 1332 1332 1331 1329 1327 1324 1322 1320 1318 1317 1316 1316 1316 1316 1317 1317 1318
1372 1370 1368 1366 1365 1363 1361 1359 1358 1353 1349 1347 1346 1345 1344 1343 1341 1340 1339 1338 1337 1337 1337 1333 1329 1323 1319 1318 1321 1324 1326 1327 1329 1331 1332 1332 1332 1331 1330 1329 1328 1327 1324 1322 1320 1318 1317 1316 1315 1315 1316 1316 1317 1317
1369 1367 1366 1365 1364 1363 1359 1357 1356 1353 1348 1345 1344 1341 1339 1338 1337 1336 1336 1335 1335 1335 1332 1327 1322 1321 1320 1321 1322 1325 1327 1328 1329 1330 1330 1331 1331 1330 1330 1329 1328 1326 1324 1322 1320 1318 1316 1314 1313 1313 1313 1314 1314 1315
1368 1367 1364 1363 1363 1362 1360 1358 1354 1350 1347 1346 1342 1340 1336 1335 1334 1333 1332 1332 1331 1330 1326 1327 1325 1322 1322 1322 1323 1325 1326 1327 1328 1329 1329 1329 1330 1329 1328 1328 1326 1325 1324 1322 1320 1319 1317 1315 1313 1310 1310 1311 1312 1313
1367 1364 1363 1362 1362 1360 1358 1357 1355 1351 1348 1341 1339 1337 1334 1332 1330 1330 1331 1331 1332 1333 1334 1332 1330 1327 1325 1325 1324 1323 1325 1326 1327 1328 1328 1329 1329 1328 1327 1326 1325 1325 1324 1322 1321 1319 1317 1315 1312 1310 1307 1307 1309 1310
1362 1361 1361 1361 1360 1358 1356 1354 1352 1348 1344 1340 1337 1334 1332 1330 1329 1329 1328 1330 1333 1335 1334 1333 1331 1330 1328 1327 1327 1325 1325 1326 1326 1327 1327 1327 1327 1327 1326 1326 1325 1325 1324 1322 1321 1319 1317 1315 1313 1311 1308 1306 1305 1306
1358 1359 1358 1357 1357 1354 1354 1352 1349 1346 1343 1341 1338 1338 1335 1332 1332 1328 1324 1331 1336 1336 1335 1333 1331 1330 1329 1328 1328 1327 1326 1326 1327 1326 1327 1327 1327 1326 1326 1326 1325 1325 1324 1323 1321 1319 1317 1315 1313 1312 1310 1308 1307 1306
1360 1356 1357 1353 1354 1353 1351 1350 1351 1347 1347 1345 1343 1341 1337 1337 1331 1327 1327 1335 1336 1336 1335 1334 1333 1332 1330 1329 1329 1328 1327 1327 1327 1326 1326 1327 1326 1326 1326 1326 1325 1324 1322 1322 1321 1319 1318 1316 1314 1312 1311 1309 1308 1307
1353 1350 1350 1346 1348 1348 1346 1348 1349 1349 1348 1350 1345 1342 1342 1338 1336 1327 1333 1337 1338 1337 1336 1335 1333 1332 1331 1330 1330 1329 1328 1326 1326 1327 1326 1326 1326 1326 1327 1326 1326 1324 1321 1320 1319 1318 1317 1316 1314 1313 1311 1309 1308 1306
1342 1341 1343 1345 1345 1345 1346 1346 1347 1347 1349 1347 1345 1344 1342 1339 1329 1332 1336 1338 1338 1337 1336 1335 1333 1332 1331 1331 1329 1328 1327 1326 1325 1326 1326 1326 1325 1325 1325 1325 1324 1322 1320 1319 1318 1317 1316 1314 1313 1311 1310 1308 1307 1306
1334 1334 1338 1341 1342 1343 1344 1344 1345 1345 1344 1343 1345 1343 1340 1335 1330 1333 1335 1337 1336 1335 1334 1332 1331 1330 1330 1328 1327 1326 1325 1324 1324 1324 1325 1325 1325 1325 1323 1323 1322 1320 1318 1317 1316 1314 1313 1312 1311 1310 1308 1307 1306 1304
1329 1330 1334 1338 1340 1340 1340 1339 1338 1337 1337 1338 1338 1337 1334 1333 1333 1334 1334 1334 1334 1333 1332 1331 1330 1328 1328 1327 1326 1324 1323 1323 1324 1323 1324 1325 1325 1325 1322 1321 1320 1318 1316 1315 1314 1312 1311 1310 1309 1307 1306 1305 1303 1302
1323 1325 1329 1333 1335 1333 1332 1333 1332 1333 1334 1334 1334 1333 1331 1331 1331 1330 1329 1330 1329 1329 1328 1328 1327 1327 1326 1326 1326 1326 1324 1323 1323 1323 1324 1324 1324 1323 1322 1320 1318 1316 1314 1313 1311 1310 1309 1308 1307 1306 1305 1303 1302 1300
1319 1322 1325 1327 1327 1327 1328 1329 1330 1330 1330 1330 1330 1329 1326 1326 1325 1323 1323 1323 1324 1324 1325 1325 1325 1325 1325 1325 1325 1325 1325 1324 1323 1323 1323 1322 1321 1320 1320 1318 1316 1315 1313 1312 1310 1309 1308 1306 1306 1305 1304 1302 1300 1298
1317 1318 1321 1323 1324 1326 1326 1327 1327 1326 1324 1324 1323 1323 1322 1323 1321 1317 1314 1316 1318 1319 1320 1322 1322 1323 1322 1322 1322 1323 1322 1322 1322 1322 1321 1321 1320 1319 1318 1316 1315 1314 1312 1310 1309 1308 1307 1305 1304 1303 1302 1301 1299 1296
1318 1319 1321 1321 1322 1322 1324 1325 1324 1323 1322 1319 1317 1316 1316 1317 1314 1312 1310 1311 1314 1315 1317 1318 1319 1319 1319 1320 1321 1321 1320 1320 1320 1320 1319 1319 1318 1317 1316 1315 1314 1312 1310 1309 1308 1307 1305 1303 1302 1301 1300 1299 1297 1295